Location: Bouchavesnes-Bergen
(49.9859°N, 2.9203°E)
Time: 00:37:32
(UTC+00:00)

IDEFIX/ARIANE 42P - Pass Details

Date: 25 June 2021
Orbit: 784 x 803 km, 98.4° (Epoch: 30 July)

Event Time Altitude Azimuth Distance (km) Brightness Sun altitude
Rises 00:57:08 0° 30° (NNE) 3,311 7.4 -15.2°
Reaches altitude 10° 01:00:57 10° 58° (ENE) 2,370 5.7 -15.0°
Maximum altitude 01:03:15 13° 85° (E) 2,167 5.1 -14.9°
Drops below altitude 10° 01:05:33 10° 111° (ESE) 2,356 5.0 -14.8°
Sets 01:09:17 0° 140° (SE) 3,274 5.5 -14.6°
Enters shadow 01:09:20 - 140° (SE) 3,285 5.5 -14.6°
